timestamp,wind_dir_avg,wind_spd_avg,wind_spd_max_dir,wind_spd_gust,battery_voltage,lat,long
2019-12-14 00:04:01+00:00,319.0,6.11,321.0,7.67,12.57,47.59359,-54.27349
2019-12-14 00:14:01+00:00,320.0,6.8,321.0,7.95,12.57,47.59359,-54.27349
2019-12-14 00:24:01+00:00,303.0,5.58,304.0,7.16,12.57,47.59359,-54.27349
2019-12-14 00:34:01+00:00,307.0,5.23,297.0,6.64,12.57,47.59359,-54.27349
2019-12-14 00:44:01+00:00,315.0,5.36,318.0,6.32,12.57,47.59359,-54.27349
2019-12-14 00:54:01+00:00,309.0,6.84,303.0,8.52,12.57,47.59359,-54.27349
2019-12-14 01:04:01+00:00,303.0,5.7,292.0,6.45,12.57,47.59359,-54.27349
2019-12-14 01:14:01+00:00,327.0,6.2,321.0,7.15,12.57,47.59359,-54.27349
2019-12-14 01:24:01+00:00,301.0,7.6,295.0,8.91,12.57,47.59359,-54.27349
2019-12-14 01:34:01+00:00,314.0,6.68,307.0,7.97,12.57,47.59359,-54.27349
2019-12-14 01:44:01+00:00,314.0,6.76,315.0,8.28,12.57,47.59359,-54.27349
2019-12-14 01:54:01+00:00,314.0,6.64,310.0,7.64,12.57,47.59359,-54.27349
2019-12-14 02:04:01+00:00,308.0,7.44,305.0,9.39,12.57,47.59359,-54.27349
2019-12-14 02:14:01+00:00,306.0,8.19,306.0,9.4,12.57,47.59359,-54.27349
2019-12-14 02:24:01+00:00,305.0,9.57,303.0,10.89,12.57,47.59359,-54.27349
2019-12-14 02:34:01+00:00,308.0,8.86,303.0,11.27,12.57,47.59359,-54.27349
2019-12-14 02:44:01+00:00,302.0,8.45,296.0,9.61,12.57,47.59359,-54.27349
2019-12-14 02:54:01+00:00,312.0,7.82,325.0,10.12,12.57,47.59359,-54.27349
2019-12-14 03:04:01+00:00,305.0,7.78,317.0,9.17,12.57,47.59359,-54.27349
2019-12-14 03:14:01+00:00,299.0,8.64,292.0,10.41,12.49,47.59359,-54.27349
2019-12-14 03:24:01+00:00,302.0,7.78,291.0,9.43,12.49,47.59359,-54.27349
2019-12-14 03:34:01+00:00,307.0,8.57,309.0,10.74,12.49,47.59359,-54.27349
2019-12-14 03:44:01+00:00,302.0,8.1,297.0,9.91,12.49,47.59359,-54.27349
2019-12-14 03:54:01+00:00,303.0,7.28,294.0,8.32,12.49,47.59359,-54.27349
2019-12-14 04:04:01+00:00,311.0,6.54,318.0,7.57,12.49,47.59359,-54.27349
2019-12-14 04:14:01+00:00,319.0,7.01,325.0,8.03,12.49,47.59359,-54.27349
2019-12-14 04:24:01+00:00,308.0,7.34,309.0,8.81,12.49,47.59359,-54.27349
2019-12-14 04:34:01+00:00,312.0,7.77,311.0,9.0,12.49,47.59359,-54.27349
2019-12-14 04:44:01+00:00,315.0,7.89,328.0,10.12,12.49,47.59359,-54.27349
2019-12-14 04:54:01+00:00,308.0,8.46,308.0,9.86,12.49,47.59359,-54.27349
2019-12-14 05:04:01+00:00,303.0,8.49,302.0,9.54,12.49,47.59359,-54.27349
2019-12-14 05:14:01+00:00,314.0,8.4,313.0,9.77,12.49,47.59359,-54.27349
2019-12-14 05:24:01+00:00,312.0,7.89,316.0,8.63,12.49,47.59359,-54.27349
2019-12-14 05:34:01+00:00,311.0,6.18,312.0,7.83,12.49,47.59359,-54.27349
2019-12-14 05:44:01+00:00,310.0,5.69,310.0,7.22,12.49,47.59359,-54.27349
2019-12-14 05:54:01+00:00,317.0,6.15,320.0,7.16,12.49,47.59359,-54.27349
2019-12-14 06:04:01+00:00,317.0,6.08,317.0,7.02,12.49,47.59359,-54.27349
2019-12-14 06:14:01+00:00,331.0,6.57,331.0,7.82,12.49,47.59359,-54.27349
2019-12-14 06:24:01+00:00,340.0,6.67,337.0,8.09,12.49,47.59359,-54.27349
2019-12-14 06:34:01+00:00,327.0,6.25,326.0,7.35,12.49,47.59359,-54.27349
2019-12-14 06:44:01+00:00,322.0,5.28,331.0,6.14,12.49,47.59359,-54.27349
2019-12-14 06:54:01+00:00,329.0,3.84,320.0,5.33,12.49,47.59359,-54.27349
2019-12-14 07:04:01+00:00,331.0,3.94,346.0,4.97,12.49,47.59359,-54.27349
2019-12-14 07:14:01+00:00,8.0,2.49,5.0,3.25,12.49,47.59359,-54.27349
2019-12-14 07:24:01+00:00,350.0,2.97,345.0,3.64,12.49,47.59359,-54.27349
2019-12-14 07:34:01+00:00,16.0,2.43,14.0,2.98,12.49,47.59359,-54.27349
2019-12-14 07:44:01+00:00,27.0,2.37,18.0,2.94,12.49,47.59359,-54.27349
2019-12-14 07:54:01+00:00,59.0,0.47,63.0,0.95,12.49,47.59359,-54.27349
2019-12-14 08:04:01+00:00,317.0,0.63,310.0,1.22,12.49,47.59359,-54.27349
2019-12-14 08:14:01+00:00,359.0,1.27,355.0,2.3,12.41,47.59359,-54.27349
2019-12-14 08:24:01+00:00,5.0,0.82,21.0,1.32,12.41,47.59359,-54.27349
2019-12-14 08:34:01+00:00,354.0,1.03,352.0,1.77,12.41,47.59359,-54.27349
2019-12-14 08:44:01+00:00,332.0,0.55,336.0,0.92,12.41,47.59359,-54.27349
2019-12-14 08:54:01+00:00,1.0,1.56,4.0,1.98,12.41,47.59359,-54.27349
2019-12-14 09:04:01+00:00,287.0,0.33,332.0,0.73,12.41,47.59359,-54.27349
2019-12-14 09:14:01+00:00,11.0,0.72,358.0,1.22,12.41,47.59359,-54.27349
2019-12-14 09:24:01+00:00,147.0,1.02,144.0,1.4,12.41,47.59359,-54.27349
2019-12-14 09:34:01+00:00,167.0,0.82,158.0,1.52,12.41,47.59359,-54.27349
2019-12-14 09:44:01+00:00,284.0,1.35,282.0,1.9,12.41,47.59359,-54.27349
2019-12-14 09:54:01+00:00,233.0,2.36,226.0,2.97,12.41,47.59359,-54.27349
2019-12-14 10:04:01+00:00,234.0,2.2,237.0,2.63,12.41,47.59359,-54.27349
2019-12-14 10:14:01+00:00,217.0,1.69,162.0,3.13,12.41,47.59359,-54.27349
2019-12-14 10:24:01+00:00,190.0,2.51,198.0,3.23,12.41,47.59359,-54.27349
2019-12-14 10:34:01+00:00,185.0,2.37,180.0,3.21,12.41,47.59359,-54.27349
2019-12-14 10:44:01+00:00,180.0,4.07,176.0,5.01,12.41,47.59359,-54.27349
2019-12-14 10:54:01+00:00,194.0,3.0,210.0,4.0,12.41,47.59359,-54.27349
2019-12-14 11:04:01+00:00,196.0,3.5,197.0,4.25,12.41,47.59359,-54.27349
2019-12-14 11:14:01+00:00,187.0,2.74,178.0,4.07,12.41,47.59359,-54.27349
2019-12-14 11:24:01+00:00,191.0,3.97,189.0,4.62,12.41,47.59359,-54.27349
2019-12-14 11:34:01+00:00,238.0,3.6,236.0,4.3,12.41,47.59359,-54.27349
2019-12-14 11:44:01+00:00,219.0,5.68,225.0,6.66,12.41,47.59359,-54.27349
2019-12-14 11:54:01+00:00,206.0,4.66,214.0,5.95,12.41,47.59359,-54.27349
2019-12-14 12:04:01+00:00,221.0,6.17,215.0,7.85,12.41,47.59359,-54.27349
2019-12-14 12:14:01+00:00,215.0,6.09,223.0,7.18,12.89,47.59359,-54.27349
2019-12-14 12:24:01+00:00,188.0,5.65,196.0,6.95,12.89,47.59359,-54.27349
2019-12-14 12:34:01+00:00,181.0,5.39,179.0,6.18,12.89,47.59359,-54.27349
2019-12-14 12:44:01+00:00,204.0,5.31,207.0,6.34,12.89,47.59359,-54.27349
2019-12-14 12:54:01+00:00,205.0,6.03,197.0,7.57,12.89,47.59359,-54.27349
2019-12-14 13:04:01+00:00,218.0,5.73,219.0,7.34,12.89,47.59359,-54.27349
2019-12-14 14:14:01+00:00,234.0,6.74,236.0,7.52,13.29,47.59359,-54.27349
2019-12-14 14:24:01+00:00,233.0,5.48,232.0,6.58,13.29,47.59359,-54.27349
2019-12-14 14:34:01+00:00,232.0,5.26,232.0,6.01,13.29,47.59359,-54.27349
2019-12-14 14:44:01+00:00,191.0,5.5,192.0,6.6,13.29,47.59359,-54.27349
2019-12-14 14:54:01+00:00,198.0,5.58,203.0,6.28,13.29,47.59359,-54.27349
2019-12-14 15:04:01+00:00,202.0,6.46,206.0,7.45,13.29,47.59359,-54.27349
2019-12-14 15:14:01+00:00,221.0,7.18,224.0,8.23,13.53,47.59359,-54.27349
2019-12-14 15:24:01+00:00,220.0,7.64,219.0,8.84,13.53,47.59359,-54.27349
2019-12-14 15:34:01+00:00,230.0,8.26,223.0,9.62,13.53,47.59359,-54.27349
2019-12-14 15:44:01+00:00,228.0,6.71,226.0,8.0,13.53,47.59359,-54.27349
2019-12-14 15:54:01+00:00,230.0,8.5,230.0,9.32,13.53,47.59359,-54.27349
2019-12-14 16:04:01+00:00,230.0,6.59,231.0,8.01,13.53,47.59359,-54.27349
2019-12-14 16:14:01+00:00,233.0,8.75,234.0,10.02,13.68,47.59359,-54.27349
2019-12-14 16:24:01+00:00,235.0,7.92,233.0,9.1,13.68,47.59359,-54.27349
2019-12-14 16:34:01+00:00,227.0,8.3,230.0,9.61,13.68,47.59359,-54.27349
2019-12-14 16:44:01+00:00,223.0,7.8,227.0,9.53,13.68,47.59359,-54.27349
2019-12-14 16:54:01+00:00,236.0,9.82,234.0,11.09,13.68,47.59359,-54.27349
2019-12-14 17:04:01+00:00,235.0,7.66,234.0,9.16,13.68,47.59359,-54.27349
2019-12-14 17:14:01+00:00,237.0,9.93,236.0,10.98,13.68,47.59359,-54.27349
2019-12-14 17:24:01+00:00,232.0,8.8,235.0,10.48,13.68,47.59359,-54.27349
2019-12-14 17:34:01+00:00,225.0,10.29,218.0,11.93,13.68,47.59359,-54.27349
2019-12-14 17:44:01+00:00,224.0,9.63,225.0,10.78,13.68,47.59359,-54.27349
2019-12-14 17:54:01+00:00,229.0,9.3,222.0,10.69,13.68,47.59359,-54.27349
2019-12-14 18:04:01+00:00,224.0,10.16,221.0,11.16,13.68,47.59359,-54.27349
2019-12-14 18:14:01+00:00,222.0,10.2,217.0,11.3,13.44,47.59359,-54.27349
2019-12-14 18:24:01+00:00,220.0,9.94,220.0,11.35,13.44,47.59359,-54.27349
2019-12-14 18:34:01+00:00,218.0,8.6,223.0,9.95,13.44,47.59359,-54.27349
2019-12-14 18:44:01+00:00,223.0,9.06,232.0,11.45,13.44,47.59359,-54.27349
2019-12-14 18:54:01+00:00,215.0,9.22,215.0,10.19,13.44,47.59359,-54.27349
2019-12-14 19:04:01+00:00,216.0,8.0,216.0,8.62,13.44,47.59359,-54.27349
2019-12-14 19:14:01+00:00,214.0,6.37,213.0,7.52,12.89,47.59359,-54.27349
2019-12-14 19:24:01+00:00,204.0,5.87,207.0,7.14,12.89,47.59359,-54.27349
2019-12-14 19:34:01+00:00,193.0,5.74,196.0,6.59,12.89,47.59359,-54.27349
2019-12-14 19:44:01+00:00,193.0,6.24,195.0,7.51,12.89,47.59359,-54.27349
2019-12-14 19:54:01+00:00,201.0,7.26,200.0,7.86,12.89,47.59359,-54.27349
2019-12-14 20:04:01+00:00,212.0,7.67,217.0,8.29,12.89,47.59359,-54.27349
2019-12-14 20:14:01+00:00,210.0,7.86,209.0,9.09,12.73,47.59359,-54.27349
2019-12-14 20:24:01+00:00,210.0,9.16,212.0,10.35,12.73,47.59359,-54.27349
2019-12-14 20:34:01+00:00,195.0,6.6,195.0,7.51,12.73,47.59359,-54.27349
2019-12-14 20:44:01+00:00,199.0,8.19,194.0,9.58,12.73,47.59359,-54.27349
2019-12-14 20:54:01+00:00,193.0,6.91,196.0,7.86,12.73,47.59359,-54.27349
2019-12-14 21:04:01+00:00,197.0,7.97,195.0,9.81,12.73,47.59359,-54.27349
2019-12-14 21:14:01+00:00,199.0,8.46,194.0,9.41,12.73,47.59359,-54.27349
2019-12-14 21:24:01+00:00,199.0,7.97,198.0,8.93,12.73,47.59359,-54.27349
2019-12-14 21:34:01+00:00,196.0,6.77,193.0,7.71,12.73,47.59359,-54.27349
2019-12-14 21:44:01+00:00,196.0,8.1,203.0,9.37,12.73,47.59359,-54.27349
2019-12-14 21:54:01+00:00,199.0,7.93,201.0,8.91,12.73,47.59359,-54.27349
2019-12-14 22:04:01+00:00,198.0,9.42,199.0,10.27,12.73,47.59359,-54.27349
2019-12-14 22:14:01+00:00,189.0,7.64,190.0,8.88,12.65,47.59359,-54.27349
2019-12-14 22:24:01+00:00,188.0,7.16,193.0,7.9,12.65,47.59359,-54.27349
2019-12-14 22:34:01+00:00,186.0,8.07,189.0,8.91,12.65,47.59359,-54.27349
2019-12-14 22:44:01+00:00,190.0,8.34,189.0,9.43,12.65,47.59359,-54.27349
2019-12-14 22:54:01+00:00,185.0,9.16,185.0,10.26,12.65,47.59359,-54.27349
2019-12-14 23:04:01+00:00,177.0,7.94,172.0,8.7,12.65,47.59359,-54.27349
2019-12-14 23:14:01+00:00,167.0,8.02,171.0,8.92,12.65,47.59359,-54.27349
2019-12-14 23:24:01+00:00,156.0,6.75,154.0,7.48,12.65,47.59359,-54.27349
2019-12-14 23:34:01+00:00,158.0,7.01,160.0,7.72,12.65,47.59359,-54.27349
2019-12-14 23:44:01+00:00,162.0,8.01,162.0,8.71,12.65,47.59359,-54.27349
2019-12-14 23:54:01+00:00,172.0,8.22,174.0,12.36,12.65,47.59359,-54.27349
